"startDT [UTC]","vpos","CH4 [ppm]","stdev(CH4) [ppm]","CO2 [ppm]","stdev(CO2) [ppm]","H2O [ppm]","stdev(H2O)","p_LGR [torr]","T_LGR [C]","mt1_LGR [us]","mt2_LGR [us]","T_ECpre [C]","T_EC1 [C]","T_EC2 [C]","p_inlet [hPa]","p_in [hPa]","p_out [hPa]","T_inlet [C]","RH_inlet [%]","dwpt_inlet [C]","T_vent [C]","RH_vent [%]","dwpt_vent [C]","flow_vent [l min-1]","flow_inlet [l min-1]","dwpt_sample [C]","T_room [C]"
2012-03-20 00:00:00,0.0,1.9075,0.0009,400.79,0.21,-1.0,0.0,138.12,28.25,24.61,36.33,0.04,-272.73,-272.74,-50,558,-927,22.7,1.4,-33.0,22.7,1.4,-32.6,5.73,2.45,-31.0,27.2
2012-03-20 00:01:00,0.0,1.9082,0.0011,400.88,0.20,-1.0,0.0,138.12,28.26,24.60,36.32,0.04,-272.74,-272.74,-49,558,-927,22.7,1.4,-32.9,22.7,1.4,-32.5,5.73,2.36,-31.0,27.3
2012-03-20 00:02:00,0.0,1.9092,0.0009,400.89,0.22,-1.0,0.0,138.11,28.27,24.61,36.32,0.04,-272.73,-272.74,-53,560,-926,22.7,1.4,-32.9,22.8,1.4,-32.5,5.73,2.32,-30.9,27.4
2012-03-20 00:03:00,0.0,1.9080,0.0011,400.93,0.21,-0.9,0.5,138.11,28.29,24.61,36.32,0.04,-272.73,-272.73,-50,561,-926,22.8,1.4,-32.9,22.8,1.4,-32.5,5.73,2.47,-30.8,27.4
2012-03-20 00:04:00,0.0,1.9079,0.0008,401.00,0.19,-0.8,1.4,138.11,28.30,24.61,36.32,0.04,-272.74,-272.73,-50,558,-926,22.8,1.4,-32.9,22.8,1.4,-32.5,5.73,2.25,-30.8,27.5
2012-03-20 00:05:00,0.0,1.9088,0.0009,401.07,0.19,-0.1,3.5,138.11,28.31,24.61,36.33,0.04,-272.73,-272.73,-50,559,-926,22.8,1.4,-32.8,22.9,1.4,-32.4,5.73,2.48,-30.7,27.6
2012-03-20 00:06:00,0.0,1.9085,0.0009,401.27,0.22,-0.1,3.7,138.11,28.33,24.61,36.32,0.04,-272.73,-272.73,-50,559,-926,22.9,1.4,-32.8,22.9,1.4,-32.3,5.73,2.31,-30.6,27.6
2012-03-20 00:07:00,0.0,1.9087,0.0010,401.23,0.22,-0.1,3.6,138.10,28.34,24.60,36.33,0.04,-272.74,-272.74,-50,559,-925,22.9,1.4,-32.8,22.9,1.4,-32.3,5.73,2.37,-30.6,27.7
2012-03-20 00:08:00,0.0,1.9092,0.0010,401.33,0.18,1.5,8.9,138.10,28.35,24.61,36.32,0.04,-272.74,-272.73,-50,559,-925,22.9,1.4,-32.8,22.9,1.4,-32.3,5.73,2.41,-30.5,27.7
2012-03-20 00:09:00,0.0,1.9085,0.0008,401.31,0.22,-0.5,1.9,138.10,28.37,24.61,36.33,0.04,-272.73,-272.73,-51,559,-926,22.9,1.4,-32.8,23.0,1.4,-32.3,5.73,2.29,-30.5,27.8
2012-03-20 00:10:00,0.0,1.9089,0.0008,401.28,0.18,-0.9,0.7,138.10,28.39,24.61,36.33,0.04,-272.73,-272.74,-50,559,-926,23.0,1.4,-32.8,23.0,1.5,-32.2,5.73,2.47,-30.4,27.9
2012-03-20 00:11:00,0.0,1.9093,0.0010,401.34,0.23,0.4,4.6,138.10,28.40,24.61,36.33,0.04,-272.74,-272.74,-49,559,-926,23.0,1.4,-32.8,23.0,1.4,-32.3,5.73,2.25,-30.4,27.9
2012-03-20 00:12:00,0.0,1.9096,0.0011,401.34,0.22,2.1,12.4,138.10,28.42,24.61,36.33,0.04,-272.74,-272.73,-50,559,-926,23.1,1.4,-32.7,23.1,1.4,-32.3,5.73,2.47,-30.3,27.7
2012-03-20 00:13:00,0.0,1.9096,0.0009,401.32,0.15,0.7,6.4,138.10,28.43,24.61,36.33,0.04,-272.74,-272.73,-50,560,-926,23.1,1.4,-32.9,23.1,1.4,-32.4,5.73,2.38,-30.4,27.1
2012-03-20 00:14:00,0.0,1.9090,0.0009,401.37,0.20,-0.5,3.1,138.11,28.43,24.61,36.32,0.04,-272.73,-272.73,-50,560,-926,23.0,1.3,-33.0,23.0,1.4,-32.5,5.73,2.34,-30.5,26.6
2012-03-20 00:15:00,0.0,1.9086,0.0009,401.44,0.25,-0.8,1.4,138.11,28.43,24.61,36.32,0.04,-272.74,-272.74,-50,560,-926,23.0,1.3,-33.1,23.0,1.4,-32.6,5.73,2.37,-30.6,26.3
2012-03-20 00:16:00,0.0,1.9079,0.0010,401.24,0.22,-0.7,2.5,138.12,28.42,24.61,36.33,0.04,-272.73,-272.74,-50,560,-926,23.0,1.3,-33.2,22.9,1.4,-32.9,5.73,2.38,-30.8,26.1
2012-03-20 00:17:00,0.0,1.9078,0.0010,401.39,0.21,-1.0,0.2,138.13,28.41,24.61,36.32,0.04,-272.73,-272.74,-50,560,-926,22.9,1.3,-33.3,22.9,1.4,-32.9,5.73,2.40,-30.9,25.9
2012-03-20 00:18:00,0.0,1.9074,0.0009,401.35,0.19,-1.0,0.0,138.13,28.39,24.61,36.32,0.04,-272.74,-272.73,-50,560,-926,22.9,1.3,-33.3,22.8,1.4,-32.9,5.73,2.40,-31.1,25.7
2012-03-20 00:19:00,0.0,1.9073,0.0009,401.29,0.22,-1.0,0.0,138.14,28.37,24.61,36.32,0.04,-272.74,-272.73,-50,560,-926,22.8,1.3,-33.4,22.8,1.4,-32.8,5.73,2.40,-31.2,25.5
2012-03-20 00:20:00,0.0,1.9071,0.0008,401.22,0.22,-1.0,0.0,138.14,28.35,24.61,36.32,0.04,-272.74,-272.74,-50,560,-926,22.8,1.3,-33.4,22.7,1.4,-32.8,5.73,2.39,-31.2,25.3
2012-03-20 00:21:00,0.0,1.9073,0.0009,401.13,0.24,-1.0,0.0,138.14,28.33,24.60,36.32,0.04,-272.74,-272.74,-50,559,-926,22.7,1.3,-33.2,22.7,1.4,-32.8,5.73,2.36,-31.3,25.2
2012-03-20 00:22:00,0.0,1.9068,0.0010,401.23,0.17,-1.0,0.0,138.15,28.30,24.61,36.31,0.04,-272.73,-272.73,-51,559,-926,22.6,1.3,-33.2,22.6,1.4,-32.9,5.73,2.36,-31.6,25.4
2012-03-20 00:23:00,0.0,1.9067,0.0010,401.17,0.17,-1.0,0.0,138.15,28.28,24.60,36.31,0.04,-272.74,-272.74,-53,558,-926,22.6,1.3,-33.2,22.5,1.4,-32.8,5.73,2.36,-31.6,25.9
2012-03-20 00:24:00,0.0,1.9066,0.0008,400.86,0.21,-1.0,0.0,138.14,28.26,24.60,36.32,0.04,-272.74,-272.74,-50,558,-924,22.7,1.4,-33.1,22.6,1.4,-32.6,5.73,2.27,-31.5,26.3
2012-03-20 00:25:00,0.0,1.9070,0.0009,400.87,0.20,-1.0,0.0,138.14,28.25,24.60,36.32,0.04,-272.74,-272.74,-51,558,-926,22.7,1.4,-32.9,22.6,1.5,-32.5,5.73,2.41,-31.4,26.5
2012-03-20 00:26:00,0.0,1.9072,0.0008,400.79,0.18,-1.0,0.0,138.13,28.25,24.60,36.32,0.04,-272.74,-272.74,-50,559,-926,22.7,1.4,-32.6,22.6,1.5,-32.2,5.73,2.44,-31.3,26.7
2012-03-20 00:27:00,0.0,1.9065,0.0011,400.77,0.19,-0.9,0.6,138.13,28.25,24.61,36.32,0.04,-272.74,-272.73,-50,558,-926,22.7,1.4,-32.5,22.7,1.5,-32.0,5.73,2.26,-31.2,26.9
2012-03-20 00:28:00,0.0,1.9058,0.0008,400.73,0.17,-1.0,0.0,138.13,28.25,24.61,36.32,0.04,-272.73,-272.74,-51,559,-925,22.7,1.4,-32.5,22.7,1.5,-32.0,5.73,2.48,-31.2,27.0
2012-03-20 00:29:00,0.0,1.9064,0.0008,400.68,0.21,-1.0,0.3,138.12,28.26,24.60,36.32,0.04,-272.73,-272.73,-51,563,-926,22.7,1.4,-32.6,22.7,1.5,-32.2,5.73,2.31,-31.1,27.1
2012-03-20 00:30:00,0.0,1.9068,0.0010,400.80,0.21,-1.0,0.0,138.12,28.27,24.60,36.32,0.04,-272.73,-272.74,-45,558,-926,22.7,1.4,-32.7,22.7,1.5,-32.3,5.73,2.36,-31.0,27.2
2012-03-20 00:31:00,0.0,1.9070,0.0010,400.77,0.21,-1.0,0.0,138.12,28.28,24.60,36.32,0.04,-272.74,-272.74,-52,561,-925,22.7,1.4,-32.7,22.7,1.5,-32.2,5.73,2.45,-30.9,27.3
2012-03-20 00:32:00,0.0,1.9064,0.0010,400.71,0.19,-0.3,5.6,138.11,28.29,24.61,36.32,0.04,-272.74,-272.74,-50,559,-925,22.8,1.4,-32.6,22.8,1.5,-32.1,5.73,2.26,-30.9,27.4
2012-03-20 00:33:00,0.0,1.9065,0.0008,400.77,0.19,-1.0,0.0,138.11,28.30,24.61,36.32,0.04,-272.73,-272.73,-50,558,-925,22.8,1.4,-32.5,22.8,1.5,-32.1,5.73,2.48,-30.8,27.4
2012-03-20 00:34:00,0.0,1.9073,0.0011,400.80,0.19,-0.0,4.2,138.11,28.31,24.61,36.32,0.04,-272.73,-272.74,-50,559,-925,22.8,1.5,-32.3,22.8,1.5,-32.0,5.73,2.28,-30.7,27.5
2012-03-20 00:35:00,0.0,1.9076,0.0009,400.80,0.20,-0.9,0.7,138.11,28.32,24.61,36.32,0.04,-272.74,-272.73,-49,558,-925,22.9,1.5,-32.2,22.9,1.5,-31.9,5.73,2.41,-30.7,27.6
2012-03-20 00:36:00,0.0,1.9087,0.0013,400.82,0.21,-0.5,2.9,138.11,28.34,24.61,36.33,0.04,-272.74,-272.73,-50,558,-925,22.9,1.5,-32.3,22.9,1.5,-31.9,5.73,2.38,-30.6,27.6
2012-03-20 00:37:00,0.0,1.9102,0.0010,400.99,0.19,2.0,9.6,138.11,28.35,24.61,36.32,0.04,-272.74,-272.73,-50,559,-925,22.9,1.5,-32.2,22.9,1.5,-31.8,5.73,2.31,-30.6,27.7
2012-03-20 00:38:00,0.0,1.9103,0.0010,401.03,0.23,0.7,6.3,138.10,28.37,24.61,36.32,0.04,-272.74,-272.74,-49,559,-926,22.9,1.5,-32.1,23.0,1.5,-31.7,5.73,2.46,-30.5,27.8
2012-03-20 00:39:00,0.0,1.9102,0.0010,400.97,0.19,1.5,9.5,138.10,28.38,24.61,36.33,0.04,-272.74,-272.74,-50,557,-925,23.0,1.5,-32.0,23.0,1.5,-31.6,5.73,2.26,-30.4,27.8
2012-03-20 00:40:00,0.0,1.9111,0.0010,401.08,0.23,2.0,8.6,138.10,28.40,24.61,36.32,0.04,-272.73,-272.73,-49,559,-925,23.0,1.5,-32.1,23.0,1.6,-31.5,5.73,2.48,-30.4,27.9
2012-03-20 00:41:00,0.0,1.9126,0.0011,401.16,0.25,1.0,7.5,138.10,28.41,24.61,36.33,0.04,-272.73,-272.74,-50,559,-925,23.1,1.5,-32.0,23.0,1.5,-31.5,5.73,2.25,-30.3,28.0
2012-03-20 00:42:00,0.0,1.9132,0.0009,401.17,0.21,2.2,8.7,138.10,28.43,24.61,36.33,0.04,-272.74,-272.73,-50,559,-925,23.1,1.5,-32.1,23.1,1.5,-31.6,5.73,2.44,-30.3,27.5
2012-03-20 00:43:00,0.0,1.9126,0.0010,401.19,0.22,5.0,16.2,138.10,28.44,24.61,36.33,0.04,-272.73,-272.74,-50,560,-926,23.1,1.5,-32.2,23.1,1.5,-31.8,5.73,2.43,-30.4,26.8
2012-03-20 00:44:00,0.0,1.9123,0.0008,401.27,0.24,0.4,7.8,138.11,28.44,24.61,36.32,0.04,-272.74,-272.74,-50,560,-926,23.0,1.5,-32.2,23.0,1.5,-31.8,5.73,2.38,-30.5,26.4
2012-03-20 00:45:00,0.0,1.9114,0.0008,401.24,0.19,-0.2,5.8,138.12,28.44,24.61,36.32,0.04,-272.74,-272.74,-50,560,-926,23.0,1.5,-32.2,23.0,1.5,-31.8,5.73,2.38,-30.7,26.2
2012-03-20 00:46:00,0.0,1.9104,0.0008,401.31,0.20,-0.7,1.5,138.12,28.43,24.61,36.32,0.04,-272.73,-272.74,-50,560,-926,23.0,1.4,-32.3,22.9,1.5,-31.8,5.73,2.38,-30.8,26.0
2012-03-20 00:47:00,0.0,1.9098,0.0008,401.30,0.18,-0.6,2.1,138.13,28.42,24.61,36.32,0.04,-272.73,-272.73,-50,560,-926,22.9,1.5,-32.2,22.9,1.5,-31.8,5.73,2.38,-30.9,25.7
2012-03-20 00:48:00,0.0,1.9096,0.0009,401.25,0.17,-1.0,0.0,138.13,28.40,24.61,36.33,0.04,-272.74,-272.74,-50,560,-926,22.9,1.5,-32.2,22.8,1.5,-31.8,5.73,2.37,-31.0,25.5
2012-03-20 00:49:00,0.0,1.9092,0.0007,401.22,0.20,-1.0,0.0,138.14,28.38,24.61,36.32,0.04,-272.74,-272.73,-50,560,-926,22.9,1.5,-32.1,22.8,1.5,-31.8,5.73,2.35,-31.1,25.4
2012-03-20 00:50:00,0.0,1.9096,0.0010,401.32,0.19,-1.0,0.0,138.14,28.36,24.61,36.32,0.04,-272.74,-272.74,-50,560,-926,22.8,1.5,-32.1,22.7,1.6,-31.7,5.73,2.34,-31.3,25.4
2012-03-20 00:51:00,0.0,1.9094,0.0010,401.38,0.20,-1.0,0.0,138.15,28.33,24.61,36.32,0.04,-272.74,-272.74,-50,560,-926,22.7,1.5,-32.1,22.7,1.6,-31.6,5.73,2.33,-31.4,25.2
2012-03-20 00:52:00,0.0,1.9088,0.0009,401.39,0.20,-1.0,0.0,138.15,28.31,24.60,36.32,0.04,-272.74,-272.73,-50,559,-926,22.7,1.5,-31.9,22.6,1.6,-31.5,5.73,2.40,-31.5,25.5
2012-03-20 00:53:00,0.0,1.9086,0.0010,401.45,0.20,-1.0,0.0,138.15,28.29,24.61,36.31,0.04,-272.74,-272.74,-51,558,-926,22.7,1.5,-31.8,22.6,1.6,-31.3,5.73,2.44,-31.4,26.0
2012-03-20 00:54:00,0.0,1.9092,0.0009,401.31,0.24,-1.0,0.0,138.14,28.27,24.60,36.32,0.04,-272.74,-272.74,-51,559,-926,22.7,1.6,-31.7,22.6,1.6,-31.3,5.73,2.30,-31.3,26.4
2012-03-20 00:55:00,0.0,1.9091,0.0010,401.18,0.24,-1.0,0.0,138.14,28.26,24.60,36.32,0.04,-272.73,-272.74,-51,559,-926,22.7,1.6,-31.5,22.6,1.6,-31.3,5.73,2.33,-31.3,26.6
2012-03-20 00:56:00,0.0,1.9090,0.0009,401.22,0.18,-1.0,0.0,138.13,28.26,24.61,36.31,0.04,-272.73,-272.73,-50,559,-925,22.7,1.6,-31.6,22.7,1.6,-31.3,5.73,2.48,-31.2,26.8
2012-03-20 00:57:00,0.0,1.9095,0.0009,401.21,0.19,-1.0,0.0,138.13,28.26,24.60,36.32,0.04,-272.73,-272.74,-50,558,-925,22.7,1.6,-31.7,22.7,1.6,-31.2,5.73,2.26,-31.1,26.9
2012-03-20 00:58:00,0.0,1.9103,0.0009,401.18,0.17,-0.9,0.7,138.12,28.27,24.61,36.32,0.04,-272.73,-272.74,-50,559,-926,22.7,1.5,-31.8,22.7,1.6,-31.4,5.73,2.44,-31.0,27.1
2012-03-20 00:59:00,0.0,1.9101,0.0010,401.32,0.20,-1.0,0.0,138.12,28.27,24.60,36.32,0.04,-272.74,-272.73,-50,558,-925,22.8,1.5,-31.9,22.8,1.6,-31.4,5.73,2.36,-30.9,27.1
2012-03-20 01:00:00,0.0,1.9094,0.0009,401.34,0.16,-1.0,0.3,138.12,28.28,24.61,36.32,0.04,-272.73,-272.74,-50,558,-925,22.8,1.5,-31.9,22.8,1.6,-31.4,5.73,2.32,-30.8,27.3
2012-03-20 01:01:00,0.0,1.9104,0.0010,401.38,0.21,-0.9,1.1,138.12,28.29,24.61,36.32,0.04,-272.74,-272.74,-50,559,-925,22.8,1.5,-31.9,22.8,1.6,-31.4,5.73,2.46,-30.8,27.3
2012-03-20 01:02:00,0.0,1.9110,0.0009,401.32,0.20,-0.9,0.5,138.11,28.30,24.61,36.32,0.04,-272.74,-272.74,-50,558,-925,22.9,1.5,-31.9,22.8,1.6,-31.4,5.73,2.25,-30.7,27.4
2012-03-20 01:03:00,0.0,1.9113,0.0009,401.52,0.20,-0.5,3.6,138.11,28.32,24.61,36.31,0.04,-272.73,-272.74,-50,558,-925,22.9,1.5,-31.9,22.9,1.6,-31.3,5.73,2.48,-30.6,27.5
2012-03-20 01:04:00,0.0,1.9115,0.0010,401.53,0.18,-0.2,5.3,138.11,28.33,24.60,36.32,0.04,-272.73,-272.74,-50,559,-925,22.9,1.5,-31.9,22.9,1.6,-31.3,5.73,2.29,-30.5,27.6
2012-03-20 01:05:00,0.0,1.9120,0.0010,401.57,0.26,-0.2,3.5,138.11,28.34,24.61,36.32,0.04,-272.74,-272.74,-50,559,-925,22.9,1.5,-31.8,22.9,1.6,-31.3,5.73,2.40,-30.5,27.7
2012-03-20 01:06:00,0.0,1.9124,0.0009,401.58,0.24,0.4,4.8,138.10,28.36,24.61,36.32,0.04,-272.73,-272.73,-48,559,-924,22.9,1.5,-31.8,22.9,1.6,-31.3,5.73,2.39,-30.4,27.7
2012-03-20 01:07:00,0.0,1.9125,0.0010,401.54,0.20,-0.1,3.4,138.10,28.37,24.61,36.33,0.04,-272.73,-272.73,-50,559,-926,23.0,1.5,-31.8,23.0,1.6,-31.3,5.73,2.30,-30.4,27.8
2012-03-20 01:08:00,0.0,1.9132,0.0009,401.56,0.21,1.1,7.8,138.10,28.39,24.61,36.33,0.04,-272.74,-272.74,-50,559,-925,23.0,1.5,-31.8,23.0,1.6,-31.2,5.73,2.46,-30.3,27.8
2012-03-20 01:09:00,0.0,1.9132,0.0009,401.52,0.20,2.6,8.8,138.10,28.40,24.61,36.33,0.04,-272.73,-272.73,-50,559,-925,23.1,1.5,-31.8,23.1,1.6,-31.2,5.73,2.26,-30.2,27.9
2012-03-20 01:10:00,0.0,1.9131,0.0009,401.62,0.16,2.3,9.9,138.10,28.42,24.61,36.32,0.04,-272.74,-272.73,-50,559,-925,23.1,1.5,-31.8,23.1,1.6,-31.3,5.73,2.48,-30.2,28.0
2012-03-20 01:11:00,0.0,1.9131,0.0009,401.64,0.19,1.3,6.9,138.10,28.44,24.61,36.32,0.04,-272.74,-272.74,-50,560,-925,23.1,1.5,-31.9,23.1,1.6,-31.4,5.73,2.28,-30.2,27.6
2012-03-20 01:12:00,0.0,1.9132,0.0009,401.62,0.21,2.2,8.5,138.10,28.45,24.61,36.32,0.04,-272.73,-272.74,-50,560,-926,23.1,1.5,-32.0,23.1,1.6,-31.4,5.73,2.32,-30.2,27.0
2012-03-20 01:13:00,0.0,1.9128,0.0008,401.59,0.22,1.7,7.9,138.11,28.46,24.61,36.32,0.04,-272.73,-272.73,-50,560,-926,23.1,1.5,-31.9,23.1,1.6,-31.4,5.73,2.38,-30.3,26.5
2012-03-20 01:14:00,0.0,1.9128,0.0011,401.61,0.21,0.6,7.9,138.11,28.46,24.61,36.32,0.04,-272.74,-272.74,-50,560,-926,23.0,1.5,-32.0,23.0,1.6,-31.5,5.73,2.37,-30.5,26.2
2012-03-20 01:15:00,0.0,1.9118,0.0011,401.56,0.20,-1.0,0.0,138.12,28.45,24.61,36.32,0.04,-272.73,-272.74,-50,560,-926,23.0,1.5,-32.1,23.0,1.5,-31.7,5.73,2.37,-30.6,25.9
2012-03-20 01:16:00,0.0,1.9109,0.0012,401.47,0.24,-0.9,0.4,138.13,28.44,24.61,36.32,0.04,-272.73,-272.74,-50,560,-926,23.0,1.5,-32.2,22.9,1.5,-31.7,5.73,2.37,-30.7,25.7
2012-03-20 01:17:00,0.0,1.9103,0.0007,401.42,0.19,-1.0,0.0,138.13,28.43,24.61,36.32,0.04,-272.73,-272.73,-50,560,-926,22.9,1.5,-32.2,22.9,1.5,-31.8,5.73,2.37,-30.8,25.6
2012-03-20 01:18:00,0.0,1.9103,0.0008,401.39,0.18,-1.0,0.0,138.13,28.41,24.61,36.32,0.04,-272.74,-272.74,-50,560,-926,22.9,1.5,-32.2,22.8,1.5,-31.8,5.73,2.38,-30.9,25.4
2012-03-20 01:19:00,0.0,1.9101,0.0008,401.37,0.18,-1.0,0.0,138.14,28.39,24.61,36.32,0.04,-272.74,-272.73,-51,560,-926,22.9,1.5,-32.1,22.8,1.5,-31.8,5.73,2.40,-31.0,25.4
2012-03-20 01:20:00,0.0,1.9107,0.0009,401.42,0.18,-1.0,0.0,138.14,28.36,24.60,36.32,0.04,-272.73,-272.74,-51,560,-926,22.8,1.5,-32.2,22.7,1.5,-31.8,5.73,2.41,-31.0,25.2
2012-03-20 01:21:00,0.0,1.9101,0.0009,401.46,0.18,-1.0,0.0,138.15,28.34,24.61,36.31,0.04,-272.74,-272.74,-51,559,-926,22.8,1.5,-32.0,22.7,1.6,-31.6,5.73,2.39,-31.2,25.3
2012-03-20 01:22:00,0.0,1.9094,0.0008,401.25,0.18,-1.0,0.0,138.14,28.32,24.61,36.31,0.04,-272.73,-272.74,-51,559,-926,22.7,1.5,-31.8,22.6,1.6,-31.4,5.73,2.32,-31.2,25.9
2012-03-20 01:23:00,0.0,1.9100,0.0007,401.21,0.14,-1.0,0.0,138.14,28.30,24.60,36.32,0.04,-272.73,-272.74,-51,560,-926,22.7,1.5,-31.8,22.7,1.6,-31.4,5.73,2.44,-31.1,26.3
2012-03-20 01:24:00,0.0,1.9094,0.0009,401.12,0.20,-1.0,0.0,138.14,28.29,24.61,36.32,0.04,-272.73,-272.74,-51,559,-924,22.7,1.5,-31.8,22.7,1.6,-31.4,5.73,2.43,-31.0,26.6
2012-03-20 01:25:00,0.0,1.9096,0.0009,401.08,0.19,-1.0,0.0,138.13,28.29,24.61,36.32,0.04,-272.74,-272.73,-51,559,-926,22.8,1.5,-31.8,22.7,1.6,-31.5,5.73,2.25,-30.9,26.8
2012-03-20 01:26:00,0.0,1.9099,0.0008,401.07,0.20,-1.0,0.0,138.13,28.29,24.60,36.32,0.04,-272.73,-272.73,-50,558,-925,22.8,1.5,-31.8,22.7,1.6,-31.4,5.73,2.48,-30.8,27.0
2012-03-20 01:27:00,0.0,1.9090,0.0009,400.95,0.21,-1.0,0.0,138.12,28.29,24.61,36.33,0.04,-272.74,-272.74,-51,559,-925,22.8,1.5,-31.7,22.8,1.6,-31.2,5.73,2.31,-30.7,27.1
2012-03-20 01:28:00,0.0,1.9094,0.0009,401.05,0.18,-1.0,0.0,138.12,28.30,24.60,36.32,0.04,-272.74,-272.73,-50,559,-925,22.9,1.5,-31.7,22.8,1.6,-31.2,5.73,2.37,-30.7,27.2
2012-03-20 01:29:00,0.0,1.9098,0.0011,401.12,0.21,-0.7,2.3,138.12,28.31,24.61,36.32,0.04,-272.73,-272.74,-51,559,-925,22.9,1.5,-31.7,22.8,1.6,-31.2,5.73,2.41,-30.6,27.3
2012-03-20 01:30:00,0.0,1.9097,0.0011,401.20,0.18,-0.3,5.2,138.11,28.32,24.61,36.32,0.04,-272.74,-272.74,-51,559,-925,22.9,1.5,-31.6,22.9,1.6,-31.2,5.73,2.28,-30.5,27.4
2012-03-20 01:31:00,0.0,1.9101,0.0009,401.14,0.18,-0.8,1.5,138.11,28.34,24.61,36.32,0.04,-272.74,-272.73,-50,559,-925,22.9,1.5,-31.6,22.9,1.6,-31.2,5.73,2.48,-30.4,27.5
2012-03-20 01:32:00,0.0,1.9106,0.0011,401.14,0.18,0.6,6.3,138.11,28.35,24.61,36.33,0.04,-272.73,-272.73,-51,559,-925,22.9,1.5,-31.6,22.9,1.6,-31.1,5.73,2.25,-30.3,27.6
2012-03-20 01:33:00,0.0,1.9110,0.0008,401.11,0.16,0.0,4.2,138.11,28.37,24.60,36.33,0.04,-272.74,-272.73,-50,559,-926,23.0,1.5,-31.6,23.0,1.6,-31.1,5.73,2.47,-30.3,27.7
2012-03-20 01:34:00,0.0,1.9113,0.0012,401.19,0.18,1.8,8.4,138.10,28.38,24.61,36.33,0.04,-272.74,-272.74,-51,559,-925,23.0,1.5,-31.6,23.0,1.6,-31.1,5.73,2.28,-30.2,27.8
2012-03-20 01:35:00,0.0,1.9119,0.0008,401.32,0.20,3.6,11.1,138.10,28.40,24.61,36.32,0.04,-272.74,-272.74,-51,559,-925,23.0,1.5,-31.6,23.0,1.6,-31.1,5.73,2.42,-30.1,27.8
2012-03-20 01:36:00,0.0,1.9124,0.0010,401.35,0.23,1.5,7.1,138.10,28.42,24.61,36.32,0.04,-272.73,-272.74,-50,560,-925,23.1,1.5,-31.6,23.1,1.6,-31.1,5.73,2.32,-30.1,27.9
2012-03-20 01:37:00,0.0,1.9128,0.0011,401.26,0.24,3.7,10.6,138.10,28.43,24.61,36.33,0.04,-272.73,-272.73,-51,559,-925,23.1,1.5,-31.7,23.1,1.6,-31.2,5.73,2.38,-30.0,28.0
2012-03-20 01:38:00,0.0,1.9133,0.0011,401.37,0.20,3.6,11.5,138.10,28.45,24.61,36.32,0.04,-272.74,-272.73,-50,560,-925,23.2,1.5,-31.8,23.1,1.6,-31.3,5.73,2.37,-30.0,28.0
2012-03-20 01:39:00,0.0,1.9137,0.0009,401.43,0.18,7.8,14.8,138.10,28.47,24.61,36.33,0.04,-272.73,-272.74,-50,560,-925,23.2,1.5,-31.9,23.2,1.6,-31.4,5.73,2.31,-29.9,27.6
2012-03-20 01:40:00,0.0,1.9131,0.0009,401.36,0.18,2.1,10.6,138.10,28.48,24.61,36.33,0.04,-272.73,-272.74,-50,560,-926,23.2,1.5,-31.7,23.2,1.6,-31.3,5.73,2.45,-30.0,26.9
2012-03-20 01:41:00,0.0,1.9127,0.0008,401.39,0.20,3.7,12.9,138.11,28.48,24.61,36.32,0.04,-272.73,-272.74,-50,560,-926,23.2,1.5,-31.7,23.1,1.6,-31.3,5.73,2.41,-30.1,26.5
2012-03-20 01:42:00,0.0,1.9123,0.0009,401.38,0.18,2.4,9.3,138.11,28.49,24.61,36.33,0.04,-272.74,-272.74,-50,561,-926,23.1,1.5,-31.7,23.1,1.6,-31.3,5.73,2.38,-30.2,26.2
2012-03-20 01:43:00,0.0,1.9118,0.0009,401.37,0.22,0.5,6.5,138.12,28.48,24.61,36.32,0.04,-272.74,-272.74,-50,561,-926,23.1,1.5,-31.8,23.0,1.6,-31.3,5.73,2.38,-30.3,26.0
2012-03-20 01:44:00,0.0,1.9116,0.0008,401.41,0.20,-0.4,3.5,138.12,28.47,24.61,36.32,0.04,-272.73,-272.74,-50,561,-926,23.1,1.5,-31.6,23.0,1.6,-31.1,5.73,2.37,-30.4,25.8
2012-03-20 01:45:00,0.0,1.9114,0.0009,401.45,0.19,-0.9,0.6,138.13,28.45,24.61,36.32,0.04,-272.74,-272.74,-51,561,-926,23.0,1.5,-31.6,22.9,1.6,-31.3,5.73,2.37,-30.6,25.6
2012-03-20 01:46:00,0.0,1.9106,0.0011,401.40,0.22,-1.0,0.0,138.13,28.44,24.61,36.32,0.04,-272.74,-272.74,-51,560,-926,23.0,1.5,-31.8,22.9,1.6,-31.4,5.73,2.37,-30.7,25.4
2012-03-20 01:47:00,0.0,1.9102,0.0010,401.31,0.18,-1.0,0.0,138.14,28.42,24.61,36.32,0.04,-272.74,-272.73,-51,560,-926,22.9,1.5,-31.9,22.8,1.6,-31.4,5.73,2.36,-30.8,25.4
2012-03-20 01:48:00,0.0,1.9097,0.0010,401.34,0.18,-1.0,0.0,138.14,28.40,24.61,36.32,0.04,-272.73,-272.73,-51,560,-926,22.9,1.5,-31.9,22.8,1.6,-31.4,5.73,2.35,-30.9,25.2
2012-03-20 01:49:00,0.0,1.9101,0.0008,401.49,0.20,-1.0,0.0,138.14,28.37,24.61,36.31,0.04,-272.73,-272.73,-51,560,-926,22.8,1.5,-32.0,22.7,1.6,-31.6,5.73,2.35,-31.0,25.3
2012-03-20 01:50:00,0.0,1.9098,0.0010,401.39,0.19,-0.9,1.1,138.15,28.35,24.61,36.31,0.04,-272.73,-272.74,-51,560,-926,22.8,1.5,-31.9,22.7,1.6,-31.5,5.73,2.41,-31.0,25.8
2012-03-20 01:51:00,0.0,1.9096,0.0008,401.20,0.17,-1.0,0.0,138.14,28.33,24.61,36.32,0.04,-272.73,-272.74,-51,559,-925,22.8,1.5,-31.9,22.7,1.6,-31.4,5.73,2.31,-30.9,26.3
2012-03-20 01:52:00,0.0,1.9095,0.0009,401.20,0.20,-1.0,0.0,138.14,28.32,24.61,36.32,0.04,-272.73,-272.74,-51,559,-925,22.8,1.5,-31.9,22.7,1.6,-31.4,5.73,2.30,-30.9,26.6
2012-03-20 01:53:00,0.0,1.9094,0.0011,400.99,0.17,-1.0,0.0,138.13,28.32,24.61,36.32,0.04,-272.73,-272.74,-55,560,-923,22.9,1.5,-31.7,22.8,1.6,-31.4,5.73,2.48,-30.8,26.8
2012-03-20 01:54:00,0.0,1.9094,0.0009,400.95,0.16,-1.0,0.0,138.13,28.32,24.61,36.32,0.04,-272.74,-272.74,-50,559,-925,22.9,1.5,-31.7,22.8,1.6,-31.3,5.73,2.26,-30.7,27.0
2012-03-20 01:55:00,0.0,1.9097,0.0011,400.79,0.18,-1.0,0.0,138.12,28.32,24.60,36.32,0.04,-272.74,-272.74,-51,559,-925,22.9,1.5,-31.7,22.8,1.6,-31.2,5.73,2.44,-30.6,27.1
2012-03-20 01:56:00,0.0,1.9093,0.0011,400.87,0.23,0.0,4.5,138.12,28.33,24.61,36.33,0.04,-272.74,-272.73,-50,559,-925,22.9,1.5,-31.9,22.9,1.6,-31.4,5.73,2.33,-30.5,27.2
2012-03-20 01:57:00,0.0,1.9097,0.0010,400.81,0.18,-0.6,2.0,138.11,28.34,24.60,36.32,0.04,-272.73,-272.73,-50,559,-925,22.9,1.5,-31.8,22.9,1.6,-31.4,5.73,2.35,-30.4,27.3
2012-03-20 01:58:00,0.0,1.9115,0.0011,400.92,0.25,-0.6,1.9,138.11,28.35,24.61,36.32,0.04,-272.73,-272.73,-51,559,-925,23.0,1.5,-31.8,22.9,1.6,-31.3,5.73,2.42,-30.3,27.4
2012-03-20 01:59:00,0.0,1.9127,0.0011,401.03,0.20,0.9,7.1,138.11,28.37,24.60,36.33,0.04,-272.74,-272.73,-50,559,-926,23.0,1.5,-31.9,22.9,1.6,-31.5,5.73,2.28,-30.2,27.5
2012-03-20 02:00:00,0.0,1.9134,0.0009,401.03,0.17,-0.2,3.6,138.11,28.38,24.61,36.33,0.04,-272.74,-272.73,-53,560,-926,23.0,1.5,-32.0,23.0,1.6,-31.4,5.73,2.47,-30.2,27.6
2012-03-20 02:01:00,0.0,1.9133,0.0010,401.10,0.21,2.0,9.6,138.10,28.40,24.61,36.32,0.04,-272.73,-272.73,-50,560,-925,23.1,1.5,-32.0,23.0,1.6,-31.4,5.73,2.25,-30.1,27.7
2012-03-20 02:02:00,0.0,1.9140,0.0011,401.14,0.21,1.0,5.5,138.10,28.41,24.61,36.33,0.04,-272.73,-272.73,-50,559,-925,23.1,1.5,-31.9,23.1,1.6,-31.4,5.73,2.48,-30.0,27.8
2012-03-20 02:03:00,0.0,1.9144,0.0010,401.14,0.20,0.2,4.4,138.10,28.43,24.61,36.32,0.04,-272.73,-272.73,-51,560,-925,23.1,1.5,-31.7,23.1,1.6,-31.4,5.73,2.25,-30.0,27.9
2012-03-20 02:04:00,0.0,1.9151,0.0009,401.17,0.17,1.9,7.7,138.10,28.45,24.61,36.33,0.04,-272.73,-272.74,-50,560,-925,23.2,1.5,-31.7,23.1,1.6,-31.3,5.73,2.46,-29.9,27.9
2012-03-20 02:05:00,0.0,1.9156,0.0009,401.18,0.26,6.9,15.1,138.10,28.47,24.61,36.33,0.04,-272.73,-272.73,-51,559,-925,23.2,1.5,-31.7,23.1,1.6,-31.2,5.73,2.27,-29.8,28.0
2012-03-20 02:06:00,0.0,1.9155,0.0008,401.17,0.19,7.5,14.7,138.10,28.49,24.61,36.33,0.04,-272.74,-272.74,-50,560,-925,23.2,1.5,-31.7,23.2,1.6,-31.1,5.73,2.44,-29.8,28.0
2012-03-20 02:07:00,0.0,1.9159,0.0008,401.21,0.22,6.5,12.5,138.10,28.50,24.61,36.33,0.04,-272.74,-272.73,-50,560,-925,23.3,1.5,-31.8,23.2,1.6,-31.3,5.73,2.38,-29.8,27.3
2012-03-20 02:08:00,0.0,1.9154,0.0012,401.25,0.16,8.9,19.7,138.10,28.51,24.61,36.32,0.04,-272.73,-272.74,-50,560,-926,23.3,1.5,-31.8,23.2,1.6,-31.2,5.73,2.30,-29.8,26.8
2012-03-20 02:09:00,0.0,1.9150,0.0009,401.22,0.19,5.0,13.7,138.11,28.52,24.61,36.32,0.04,-272.73,-272.74,-51,560,-926,23.2,1.5,-31.7,23.2,1.6,-31.2,5.73,2.33,-30.0,26.5
2012-03-20 02:10:00,0.0,1.9145,0.0009,401.23,0.16,1.3,7.9,138.11,28.52,24.61,36.32,0.04,-272.73,-272.73,-51,561,-926,23.2,1.5,-31.6,23.1,1.6,-31.2,5.73,2.36,-30.1,26.2
2012-03-20 02:11:00,0.0,1.9140,0.0010,401.28,0.22,-0.2,5.7,138.12,28.51,24.61,36.32,0.04,-272.73,-272.74,-51,561,-926,23.1,1.5,-31.6,23.1,1.6,-31.2,5.73,2.37,-30.2,26.0
2012-03-20 02:12:00,0.0,1.9139,0.0010,401.33,0.19,-0.1,4.1,138.12,28.50,24.61,36.32,0.04,-272.74,-272.74,-51,561,-926,23.1,1.5,-31.6,23.0,1.6,-31.1,5.73,2.37,-30.3,25.8
2012-03-20 02:13:00,0.0,1.9131,0.0009,401.17,0.20,-0.8,1.8,138.13,28.49,24.61,36.32,0.04,-272.74,-272.74,-51,561,-926,23.1,1.5,-31.6,23.0,1.6,-31.1,5.73,2.38,-30.4,25.6
2012-03-20 02:14:00,0.0,1.9126,0.0008,401.19,0.18,-0.8,1.8,138.13,28.47,24.61,36.32,0.04,-272.73,-272.74,-51,560,-926,23.0,1.5,-31.6,22.9,1.6,-31.2,5.73,2.38,-30.5,25.5
2012-03-20 02:15:00,0.0,1.9122,0.0009,401.26,0.21,-1.0,0.0,138.14,28.45,24.61,36.31,0.04,-272.73,-272.73,-51,560,-926,23.0,1.5,-31.7,22.9,1.6,-31.4,5.73,2.38,-30.6,25.4
2012-03-20 02:16:00,0.0,1.9126,0.0010,401.20,0.21,-1.0,0.0,138.14,28.43,24.61,36.32,0.04,-272.74,-272.74,-51,560,-926,22.9,1.5,-31.7,22.8,1.6,-31.2,5.73,2.39,-30.7,25.3
2012-03-20 02:17:00,0.0,1.9124,0.0008,401.26,0.17,-1.0,0.0,138.14,28.40,24.61,36.32,0.04,-272.73,-272.74,-51,560,-926,22.9,1.5,-31.7,22.8,1.6,-31.2,5.73,2.39,-30.8,25.3
2012-03-20 02:18:00,0.0,1.9124,0.0009,401.21,0.22,-1.0,0.0,138.14,28.38,24.60,36.32,0.04,-272.74,-272.74,-51,560,-926,22.9,1.5,-31.6,22.7,1.6,-31.2,5.73,2.33,-30.8,25.9